[[{"header":{"parameterUnit":"m.s-1","parameterCategory":2,"la1":30.2991,"la2":30.254,"lo1":-89.0895,"lo2":-89.0444,"dy":0.0017,"dx":0.0017,"nx":28,"ny":28,"refTime":"2024-12-07T03:00:00:Z","depth":"0","parameterNumber":2,"parameterNumberName":"U-component_of_CURRENTS"},"data":[0,0,0,0,0,0,0,0,0,0,0,0,0,0,0,0,0,0,0,0,0,0,0,0,0,0,0,0,0,0,0,0,0,0,0,0,0,0,0,0,0,0,0,0,0,0,0,0,0,0,0,0,0,0,0,0,0,0,-0.2092,-0.2092,0,-0.2054,-0.2053,-0.2053,-0.1999,-0.1998,-0.1997,-0.1996,-0.1931,-0.193,-0.1929,0,0,0,0,0,0,0,0,0,0,0,0,0,-0.2126,-0.2125,-0.2092,-0.2092,-0.2092,-0.2054,-0.2053,-0.2053,-0.1999,-0.1998,-0.1997,-0.1996,-0.1931,-0.193,-0.1929,0,0,0,0,0,0,0,0,0,0,0,0,0,-0.21,-0.2125,-0.2092,-0.2061,-0.2058,-0.2054,-0.2053,-0.2052,-0.1999,-0.1998,-0.1997,-0.1996,-0.1932,-0.193,-0.1929,-0.1943,0,0,-0.1924,-0.1924,0,0,0,0,0,0,0,0,-0.2102,-0.2099,-0.2066,-0.2063,-0.206,-0.2031,-0.2041,-0.2015,-0.1999,-0.202,-0.1996,-0.1995,-0.1964,-0.196,-0.1953,-0.194,-0.1937,-0.1924,-0.1923,-0.1923,-0.1922,0,0,0,0,0,0,0,-0.2103,-0.21,-0.2075,-0.2066,-0.2062,-0.2052,-0.2047,-0.2036,-0.1997,-0.2018,-0.2014,-0.2013,-0.1962,-0.1955,-0.1951,-0.1936,-0.1924,-0.1923,-0.1922,-0.1921,-0.19,-0.19,0,0,0,0,0,0,-0.2112,-0.2102,-0.2077,-0.2074,-0.208,-0.2052,-0.2046,-0.204,-0.1998,-0.1991,-0.2014,-0.2011,-0.1958,-0.1953,-0.1949,-0.1959,-0.1923,-0.1921,-0.192,-0.1899,-0.19,-0.19,0,0,0,0,0,0,-0.2113,-0.211,-0.2078,-0.2089,-0.2084,-0.2053,-0.2047,-0.204,-0.2031,-0.1995,-0.1987,-0.2011,-0.1957,-0.1951,-0.1939,-0.1956,-0.192,-0.1919,-0.1899,-0.1899,-0.19,-0.1982,0,0,0,0,0,0,-0.2114,-0.2111,-0.211,-0.2089,-0.2084,-0.2081,-0.2048,-0.204,-0.2033,-0.2028,-0.1991,-0.1983,-0.1956,-0.1942,-0.1938,-0.1953,-0.1918,-0.1899,-0.1899,-0.19,-0.1979,-0.1985,-0.1991,0,0,0,0,0,-0.2115,-0.2119,-0.211,-0.2107,-0.2083,-0.2082,-0.2078,-0.2051,-0.2034,-0.2037,-0.2009,-0.1984,-0.1942,-0.1942,-0.1937,-0.1952,-0.1898,-0.1899,-0.19,-0.1976,-0.1984,-0.199,0,0,0,0,0,0,-0.2127,-0.2114,-0.2103,-0.21,-0.2095,-0.2073,-0.207,-0.2059,-0.204,-0.2031,-0.1995,-0.1986,-0.198,-0.1955,-0.1954,-0.1945,-0.1914,-0.1914,-0.1974,-0.1981,-0.1987,-0.1984,-0.1917,0,0,0,0,0,-0.2133,-0.2132,-0.2121,-0.2118,-0.2116,-0.2097,-0.2092,-0.2079,-0.2061,-0.205,-0.2026,-0.1997,-0.1981,-0.1972,-0.195,-0.1954,-0.1944,-0.1956,-0.1962,-0.1968,-0.196,-0.1965,-0.1972,-0.1903,-0.1903,-0.1903,0,0,-0.2135,-0.2129,-0.2126,-0.2121,-0.211,-0.2116,-0.209,-0.2088,-0.2093,-0.2048,-0.2042,-0.2019,-0.1985,-0.1983,-0.1978,-0.1964,-0.1988,-0.1969,-0.1974,-0.1963,-0.1967,-0.1974,-0.198,-0.1903,-0.1903,-0.1903,0,0,-0.2144,-0.2135,-0.2139,-0.2142,-0.2137,-0.2131,-0.2136,-0.2122,-0.2112,-0.2112,-0.2078,-0.2065,-0.2041,-0.2022,-0.2009,-0.2035,-0.2019,-0.2028,-0.206,-0.2066,-0.2072,-0.2077,-0.2107,-0.2114,-0.2033,-0.2034,-0.2034,0,-0.2143,-0.2148,-0.2141,-0.2151,-0.2156,-0.2142,-0.2154,-0.2151,-0.2135,-0.2136,-0.2116,-0.2086,-0.2058,-0.2059,-0.206,-0.205,-0.2057,-0.2042,-0.2076,-0.2081,-0.2084,-0.2113,-0.2119,-0.2038,-0.2037,-0.2037,-0.2036,0,-0.2157,-0.2164,-0.2168,-0.2176,-0.2186,-0.2193,-0.2195,-0.2202,-0.2193,-0.2186,-0.2183,-0.215,-0.2127,-0.2124,-0.2098,-0.2112,-0.2112,-0.2086,-0.2064,-0.2097,-0.2124,-0.213,-0.2043,-0.2042,-0.2041,-0.204,0,0,-0.2131,-0.217,-0.2169,-0.2186,-0.22,-0.2211,-0.2232,-0.2245,-0.2259,-0.2245,-0.2258,-0.2227,-0.2204,-0.2186,-0.2159,-0.2163,-0.2204,-0.2138,-0.2136,-0.2178,-0.2242,-0.215,-0.2147,-0.219,-0.219,-0.2191,-0.2263,0,-0.2135,-0.2172,-0.2188,-0.2221,-0.2238,-0.2251,-0.2274,-0.229,-0.2293,-0.2305,-0.2281,-0.2274,-0.223,-0.2221,-0.222,-0.2198,-0.2216,-0.2188,-0.2192,-0.2193,-0.2116,-0.2149,-0.2002,-0.2045,-0.2268,-0.2269,-0.2269,0,-0.2128,-0.2159,-0.2199,-0.2253,-0.2261,-0.228,-0.232,-0.234,-0.2359,-0.2362,-0.2356,-0.2333,-0.2326,-0.2285,-0.228,-0.2267,-0.2258,-0.2249,-0.2251,-0.2133,-0.2109,-0.2039,-0.2046,-0.2015,-0.2277,-0.2277,-0.2276,0,-0.2109,-0.2159,-0.2197,-0.2213,-0.2272,-0.2292,-0.2318,-0.2349,-0.2368,-0.2389,-0.24,-0.2392,-0.2381,-0.2368,-0.233,-0.2312,-0.2339,-0.2311,-0.2234,-0.2229,-0.2084,-0.2064,-0.206,-0.2322,-0.2322,-0.2322,-0.2322,0,-0.2099,-0.2122,-0.2192,-0.2211,-0.2256,-0.2292,-0.2331,-0.2359,-0.2393,-0.2406,-0.2414,-0.2412,-0.2397,-0.24,-0.2371,-0.2315,-0.2371,-0.2242,-0.2233,-0.211,-0.2092,-0.2038,-0.2051,-0.2325,-0.2324,-0.2324,-0.2323,0,-0.2061,-0.2108,-0.2154,-0.2226,-0.2247,-0.2275,-0.2334,-0.2352,-0.2394,-0.2413,-0.2416,-0.2438,-0.242,-0.2421,-0.241,-0.2351,-0.2266,-0.2297,-0.2162,-0.2134,-0.198,-0.2002,-0.1983,-0.1937,-0.2209,-0.2207,-0.2205,0,-0.2044,-0.2065,-0.2155,-0.2172,-0.2199,-0.2246,-0.2268,-0.2337,-0.2352,-0.2405,-0.2401,-0.2416,-0.2364,-0.234,-0.2266,-0.2222,-0.2215,-0.2071,-0.1981,-0.195,-0.1972,-0.1991,-0.1956,-0.1851,-0.1847,-0.1843,-0.184,0,-0.1994,-0.203,-0.2068,-0.2119,-0.2148,-0.2188,-0.2223,-0.2236,-0.2296,-0.2289,-0.2257,-0.2223,-0.2214,-0.207,-0.2046,-0.2001,-0.198,-0.1991,-0.1988,-0.1707,-0.1699,-0.1656,-0.1862,-0.1808,-0.1811,-0.1814,-0.1815,-0.1817,-0.1933,-0.1951,-0.1996,-0.2032,-0.2072,-0.2075,-0.204,-0.206,-0.2035,-0.1964,-0.2045,-0.1932,-0.1888,-0.1791,-0.1772,-0.1663,-0.1749,-0.1575,-0.1618,-0.1653,-0.1548,-0.1686,-0.1593,-0.1595,-0.1597,-0.1598,-0.16,0,-0.1835,-0.1859,-0.1893,-0.192,-0.191,-0.1968,-0.1958,-0.1869,-0.1749,-0.1733,-0.1643,-0.155,-0.1431,-0.1447,-0.1363,-0.1299,-0.1292,-0.129,-0.1287,-0.1279,-0.141,-0.1328,-0.1135,-0.1135,-0.1135,-0.1135,-0.1135,-0.1135,-0.1777,-0.1762,-0.1789,-0.1737,-0.1743,-0.1653,-0.1601,-0.1474,-0.1412,-0.1229,-0.1169,-0.1189,-0.1221,-0.1251,-0.1165,-0.1118,-0.1126,-0.1073,-0.1164,-0.1251,-0.1281,-0.131,-0.1235,-0.1026,-0.1026,-0.0945,-0.0945,-0.0944]},{"header":{"parameterUnit":"m.s-1","parameterCategory":2,"la1":30.2991,"la2":30.254,"lo1":-89.0895,"lo2":-89.0444,"dy":0.0017,"dx":0.0017,"nx":28,"ny":28,"refTime":"2024-12-07T03:00:00:Z","depth":"0","parameterNumber":3,"parameterNumberName":"V-component_of_CURRENTS"},"data":[0,0,0,0,0,0,0,0,0,0,0,0,0,0,0,0,0,0,0,0,0,0,0,0,0,0,0,0,0,0,0,0,0,0,0,0,0,0,0,0,0,0,0,0,0,0,0,0,0,0,0,0,0,0,0,0,0,0,-0.0461,-0.0459,0,-0.0326,-0.0325,-0.0323,-0.0268,-0.0268,-0.0268,-0.0269,-0.0155,-0.0152,-0.0149,0,0,0,0,0,0,0,0,0,0,0,0,0,-0.0584,-0.0582,-0.0461,-0.0459,-0.0458,-0.0326,-0.0325,-0.0323,-0.0268,-0.0268,-0.0268,-0.0269,-0.0156,-0.0152,-0.0148,0,0,0,0,0,0,0,0,0,0,0,0,0,-0.0498,-0.0582,-0.0461,-0.0415,-0.0409,-0.0327,-0.0324,-0.0322,-0.0267,-0.0268,-0.0269,-0.0269,-0.0158,-0.0153,-0.0148,-0.0106,0,0,-0.0133,-0.013,0,0,0,0,0,0,0,0,-0.0503,-0.0493,-0.0423,-0.0418,-0.0412,-0.0315,-0.0326,-0.0251,-0.0267,-0.0321,-0.0269,-0.0269,-0.0211,-0.0201,-0.0174,-0.0101,-0.0096,-0.0132,-0.0129,-0.0127,-0.0125,0,0,0,0,0,0,0,-0.0509,-0.0498,-0.0407,-0.0422,-0.0414,-0.0371,-0.036,-0.0311,-0.0264,-0.0316,-0.0312,-0.0298,-0.0208,-0.0179,-0.0171,-0.0095,-0.0132,-0.0128,-0.0125,-0.0123,0.0019,0.002,0,0,0,0,0,0,-0.053,-0.0504,-0.0411,-0.0403,-0.046,-0.0369,-0.0356,-0.0345,-0.0264,-0.0252,-0.0297,-0.0296,-0.0187,-0.0177,-0.0166,-0.0107,-0.0127,-0.0122,-0.0119,0.0018,0.0019,0.002,0,0,0,0,0,0,-0.0534,-0.0523,-0.0417,-0.0451,-0.0434,-0.0367,-0.0354,-0.0342,-0.031,-0.025,-0.0239,-0.0278,-0.0187,-0.0174,-0.0117,-0.0103,-0.012,-0.0115,0.0017,0.0018,0.0019,0.0008,0,0,0,0,0,0,-0.0538,-0.0525,-0.0517,-0.0452,-0.0433,-0.036,-0.0353,-0.0339,-0.0301,-0.0297,-0.0229,-0.0219,-0.0186,-0.0124,-0.0112,-0.0096,-0.0111,0.0016,0.0018,0.0019,0.0008,0.0009,0.001,0,0,0,0,0,-0.0543,-0.0521,-0.0517,-0.0506,-0.0426,-0.0359,-0.0344,-0.0298,-0.03,-0.0274,-0.0235,-0.0221,-0.0107,-0.0119,-0.0105,-0.0087,0.0016,0.0017,0.0019,0.0007,0.0009,0.001,0,0,0,0,0,0,-0.0552,-0.0511,-0.0506,-0.047,-0.042,-0.035,-0.0318,-0.0298,-0.0245,-0.0246,-0.0202,-0.0188,-0.0134,-0.0108,-0.0123,-0.0043,-0.0047,-0.0042,-0.0061,-0.0059,-0.0058,-0.008,-0.0107,0,0,0,0,0,-0.0558,-0.054,-0.0489,-0.0457,-0.0437,-0.0383,-0.035,-0.0322,-0.027,-0.0248,-0.0204,-0.016,-0.0113,-0.0087,-0.0039,0.0009,0.0014,0.0027,0.0028,0.0029,0.002,0.0033,0.0034,0.0025,0.0025,0.0025,0,0,-0.0552,-0.0526,-0.0515,-0.0459,-0.042,-0.0383,-0.0363,-0.0312,-0.0282,-0.0244,-0.0189,-0.0149,-0.0099,-0.0044,-0.0019,-0.0022,0.0037,0.0031,0.0031,0.0022,0.0035,0.0035,0.0036,0.0027,0.0026,0.0026,0,0,-0.053,-0.0512,-0.0493,-0.0458,-0.0406,-0.0372,-0.0363,-0.0298,-0.0271,-0.0214,-0.0185,-0.014,-0.0064,-0.0027,0.0,0.0035,0.0043,0.0049,0.0039,0.0052,0.0052,0.0052,0.0068,0.0069,0.0048,0.0048,0.0048,0,-0.0526,-0.0503,-0.0471,-0.0442,-0.042,-0.0375,-0.035,-0.0304,-0.023,-0.0215,-0.02,-0.0105,-0.0057,-0.0006,0.0011,0.0038,0.0042,0.0029,0.0051,0.0051,0.0052,0.0067,0.0069,0.0048,0.0048,0.0048,0.0048,0,-0.0495,-0.0478,-0.0458,-0.0424,-0.0389,-0.0357,-0.0308,-0.0273,-0.0246,-0.0211,-0.0157,-0.0092,-0.0047,-0.0016,0.0014,0.0044,0.0046,0.0051,0.0042,0.0052,0.0068,0.007,0.0047,0.0047,0.0047,0.0048,0,0,-0.0492,-0.0451,-0.0448,-0.045,-0.0388,-0.0365,-0.0315,-0.0271,-0.0264,-0.019,-0.0178,-0.0082,-0.0067,-0.0037,0.0004,0.0027,0.005,0.0038,0.0039,0.0043,0.0075,0.0133,0.0141,0.0052,0.0052,0.0052,0.0088,0,-0.0485,-0.0463,-0.0433,-0.0414,-0.0406,-0.0362,-0.0331,-0.0287,-0.0248,-0.022,-0.0158,-0.0124,-0.0069,-0.0057,-0.0021,0.0026,0.0053,0.004,0.0074,0.0075,0.0117,0.0145,0.0175,0.0214,0.009,0.009,0.0091,0,-0.0475,-0.047,-0.0459,-0.0452,-0.0445,-0.0422,-0.04,-0.0363,-0.0306,-0.028,-0.0233,-0.0191,-0.0132,-0.0099,-0.0014,-0.0029,0.0022,0.0062,0.0064,0.012,0.0137,0.0185,0.0223,0.0325,0.0094,0.0094,0.0094,0,-0.0523,-0.0496,-0.0503,-0.0494,-0.0462,-0.0456,-0.0438,-0.0387,-0.0379,-0.0326,-0.0324,-0.0246,-0.022,-0.0145,-0.0033,-0.0037,0.0053,0.0054,0.0157,0.0161,0.0195,0.0203,0.0326,0.0107,0.0107,0.0107,0.0107,0,-0.0542,-0.0548,-0.0533,-0.0538,-0.0563,-0.0516,-0.053,-0.0495,-0.0461,-0.0467,-0.0371,-0.0357,-0.0233,-0.0156,-0.006,0.0067,0.0035,0.016,0.0177,0.0195,0.0202,0.0299,0.033,0.0108,0.0108,0.0107,0.0107,0,-0.0587,-0.057,-0.059,-0.0581,-0.0586,-0.0605,-0.0602,-0.0616,-0.0563,-0.057,-0.0559,-0.0451,-0.0335,-0.0193,-0.0064,0.0031,0.0213,0.0199,0.0221,0.0242,0.0427,0.0456,0.0573,0.0627,0.03,0.0302,0.0303,0,-0.0605,-0.0618,-0.0643,-0.0677,-0.0676,-0.0698,-0.072,-0.0676,-0.0687,-0.0627,-0.064,-0.0518,-0.0412,-0.0172,0.0022,0.0214,0.0287,0.034,0.0349,0.0455,0.0498,0.0512,0.0549,0.0388,0.039,0.0392,0.0393,0,-0.0648,-0.0657,-0.0681,-0.0762,-0.08,-0.084,-0.086,-0.0876,-0.0827,-0.0793,-0.0722,-0.0622,-0.0366,-0.0108,0.0162,0.0273,0.0418,0.038,0.0479,0.0576,0.0607,0.0661,0.0347,0.0408,0.0406,0.0405,0.0404,0.0404,-0.0684,-0.0723,-0.0771,-0.0848,-0.0908,-0.0966,-0.098,-0.0974,-0.0956,-0.0859,-0.0776,-0.0562,-0.0214,0.019,0.0313,0.0592,0.0549,0.0669,0.0692,0.0696,0.0763,0.0492,0.0582,0.0582,0.0582,0.0581,0.0581,0,-0.0728,-0.0778,-0.0861,-0.0948,-0.1039,-0.104,-0.1067,-0.104,-0.0991,-0.0845,-0.0708,-0.0278,0.0069,0.0381,0.076,0.0898,0.0909,0.0961,0.0981,0.1002,0.0757,0.0779,0.0929,0.0929,0.0929,0.0929,0.0929,0.0928,-0.0755,-0.0835,-0.0884,-0.1044,-0.111,-0.117,-0.1169,-0.1079,-0.0953,-0.0652,-0.037,-0.0156,0.0275,0.0825,0.1149,0.1173,0.1268,0.1262,0.1309,0.1139,0.1113,0.1088,0.1119,0.1338,0.1338,0.1545,0.1547,0.1549]}],[{"header":{"parameterUnit":"m.s-1","parameterCategory":2,"la1":30.2991,"la2":30.254,"lo1":-89.0895,"lo2":-89.0444,"dy":0.0017,"dx":0.0017,"nx":28,"ny":28,"refTime":"2024-12-07T03:00:00:Z","depth":"2","parameterNumber":2,"parameterNumberName":"U-component_of_CURRENTS"},"data":[0,0,0,0,0,0,0,0,0,0,0,0,0,0,0,0,0,0,0,0,0,0,0,0,0,0,0,0,0,0,0,0,0,0,0,0,0,0,0,0,0,0,0,0,0,0,0,0,0,0,0,0,0,0,0,0,0,0,-0.1079,-0.1079,0,-0.1056,-0.1055,-0.1055,-0.106,-0.1061,-0.1062,-0.1063,-0.1171,-0.1173,-0.1175,0,0,0,0,0,0,0,0,0,0,0,0,0,-0.105,-0.1051,-0.1079,-0.1079,-0.108,-0.1056,-0.1055,-0.1055,-0.106,-0.1061,-0.1062,-0.1063,-0.117,-0.1172,-0.1175,0,0,0,0,0,0,0,0,0,0,0,0,0,-0.1044,-0.1051,-0.1079,-0.1083,-0.1084,-0.1056,-0.1055,-0.1054,-0.1059,-0.1061,-0.1062,-0.1063,-0.1169,-0.1172,-0.1175,-0.1166,0,0,-0.1184,-0.1186,0,0,0,0,0,0,0,0,-0.1044,-0.1044,-0.1082,-0.1083,-0.1084,-0.1067,-0.1085,-0.11,-0.1059,-0.1063,-0.1063,-0.1064,-0.1151,-0.1155,-0.1138,-0.1171,-0.1176,-0.1185,-0.1186,-0.1188,-0.1189,0,0,0,0,0,0,0,-0.1045,-0.1045,-0.1065,-0.1083,-0.1083,-0.106,-0.1061,-0.1087,-0.1098,-0.1063,-0.1064,-0.107,-0.1151,-0.1135,-0.1141,-0.1177,-0.1184,-0.1187,-0.1189,-0.119,-0.1289,-0.129,0,0,0,0,0,0,-0.1061,-0.1046,-0.1065,-0.1064,-0.1073,-0.106,-0.1061,-0.1066,-0.1094,-0.1101,-0.1069,-0.107,-0.1129,-0.1138,-0.1145,-0.1231,-0.1188,-0.119,-0.1192,-0.1289,-0.129,-0.1291,0,0,0,0,0,0,-0.106,-0.1063,-0.1066,-0.1059,-0.1058,-0.1061,-0.1066,-0.1065,-0.1087,-0.1099,-0.1106,-0.1096,-0.1131,-0.1141,-0.1184,-0.1232,-0.1192,-0.1195,-0.1288,-0.1289,-0.129,-0.1343,0,0,0,0,0,0,-0.1059,-0.1063,-0.1066,-0.106,-0.106,-0.1078,-0.1065,-0.1064,-0.1088,-0.1091,-0.1124,-0.1133,-0.1133,-0.1179,-0.1187,-0.1236,-0.1197,-0.1287,-0.1288,-0.129,-0.134,-0.1346,-0.1351,0,0,0,0,0,-0.1058,-0.1068,-0.1066,-0.1068,-0.1066,-0.1079,-0.1077,-0.1078,-0.1089,-0.1101,-0.1115,-0.1134,-0.1195,-0.1182,-0.1191,-0.1242,-0.1286,-0.1288,-0.129,-0.1338,-0.1345,-0.1351,0,0,0,0,0,0,-0.1065,-0.1069,-0.1067,-0.1079,-0.109,-0.1083,-0.1099,-0.1099,-0.1115,-0.1137,-0.1139,-0.1148,-0.1205,-0.1209,-0.1194,-0.1272,-0.1247,-0.125,-0.128,-0.1287,-0.1292,-0.1292,-0.1199,0,0,0,0,0,-0.1066,-0.1081,-0.1078,-0.1099,-0.1106,-0.1108,-0.1114,-0.1125,-0.1139,-0.1148,-0.1175,-0.1198,-0.1211,-0.1238,-0.1255,-0.1299,-0.1317,-0.1338,-0.1343,-0.1348,-0.1352,-0.1384,-0.1393,-0.1297,-0.1297,-0.1297,0,0,-0.1086,-0.1086,-0.11,-0.1103,-0.1115,-0.1139,-0.1116,-0.1155,-0.1176,-0.1161,-0.1218,-0.1226,-0.1224,-0.1266,-0.1294,-0.1284,-0.1394,-0.135,-0.1354,-0.1356,-0.1387,-0.1396,-0.1405,-0.1298,-0.1298,-0.1297,0,0,-0.1146,-0.113,-0.1168,-0.1167,-0.1192,-0.1188,-0.1211,-0.1231,-0.1238,-0.1282,-0.1269,-0.1298,-0.1344,-0.1336,-0.1336,-0.1382,-0.1417,-0.1405,-0.1441,-0.1473,-0.1481,-0.1489,-0.1564,-0.1578,-0.1412,-0.1412,-0.1412,0,-0.1186,-0.1194,-0.1184,-0.121,-0.1215,-0.1222,-0.126,-0.1261,-0.1297,-0.1298,-0.1322,-0.136,-0.1372,-0.1381,-0.1395,-0.1399,-0.1434,-0.1419,-0.1481,-0.1488,-0.1495,-0.157,-0.1585,-0.1415,-0.1414,-0.1414,-0.1414,0,-0.1234,-0.1259,-0.1285,-0.1313,-0.1325,-0.1355,-0.1358,-0.1374,-0.1398,-0.1403,-0.144,-0.1445,-0.1461,-0.1476,-0.1453,-0.1498,-0.1518,-0.1482,-0.1467,-0.1508,-0.1585,-0.1599,-0.1419,-0.1418,-0.1417,-0.1416,0,0,-0.1315,-0.1318,-0.1337,-0.1349,-0.1368,-0.1389,-0.1414,-0.1421,-0.1447,-0.1481,-0.1527,-0.1524,-0.1533,-0.1531,-0.1517,-0.1547,-0.1639,-0.1544,-0.1544,-0.1625,-0.1755,-0.1604,-0.1605,-0.1617,-0.1619,-0.162,-0.1805,0,-0.137,-0.141,-0.1405,-0.147,-0.1486,-0.147,-0.1493,-0.1504,-0.1525,-0.1576,-0.1563,-0.1612,-0.155,-0.1585,-0.1596,-0.1635,-0.1672,-0.1595,-0.1697,-0.1702,-0.1565,-0.1613,-0.1452,-0.1586,-0.1819,-0.1821,-0.1823,0,-0.1419,-0.1429,-0.1473,-0.1509,-0.1521,-0.1562,-0.1577,-0.1599,-0.1628,-0.1651,-0.167,-0.1689,-0.1726,-0.1688,-0.175,-0.1709,-0.1733,-0.1758,-0.1765,-0.1608,-0.1573,-0.1573,-0.1603,-0.1846,-0.1844,-0.1842,-0.1841,0,-0.1436,-0.1493,-0.1514,-0.1516,-0.155,-0.157,-0.16,-0.1625,-0.166,-0.1709,-0.1786,-0.1792,-0.1857,-0.1862,-0.1857,-0.184,-0.1947,-0.193,-0.1816,-0.181,-0.168,-0.1655,-0.1974,-0.1974,-0.1974,-0.1973,-0.1973,0,-0.1465,-0.1501,-0.1522,-0.1526,-0.1572,-0.1601,-0.1664,-0.1675,-0.1762,-0.1818,-0.1835,-0.188,-0.1906,-0.1945,-0.1926,-0.1897,-0.1988,-0.1836,-0.1834,-0.1695,-0.1671,-0.1883,-0.187,-0.198,-0.1979,-0.1977,-0.1976,0,-0.1489,-0.1494,-0.1516,-0.1552,-0.1576,-0.1606,-0.1711,-0.1765,-0.1832,-0.1923,-0.1958,-0.2013,-0.2016,-0.2018,-0.2055,-0.1989,-0.1976,-0.1932,-0.1777,-0.1748,-0.1831,-0.1819,-0.1896,-0.1892,-0.1889,-0.1886,-0.1883,0,-0.149,-0.1496,-0.1527,-0.1546,-0.157,-0.1627,-0.1684,-0.1772,-0.1845,-0.1952,-0.2016,-0.2063,-0.1999,-0.2002,-0.1901,-0.1855,-0.1897,-0.1695,-0.159,-0.1826,-0.1818,-0.1811,-0.1804,-0.1497,-0.1491,-0.1487,-0.1483,0,-0.1476,-0.1485,-0.1498,-0.1525,-0.1582,-0.1643,-0.1741,-0.1805,-0.1897,-0.1934,-0.1938,-0.1897,-0.1888,-0.1705,-0.1648,-0.1591,-0.1683,-0.16,-0.1913,-0.1488,-0.1448,-0.144,-0.1447,-0.1444,-0.1448,-0.1451,-0.1453,-0.1455,-0.1458,-0.1452,-0.1454,-0.1487,-0.155,-0.161,-0.1614,-0.1696,-0.1711,-0.1711,-0.1762,-0.1627,-0.1627,-0.1396,-0.1325,-0.1291,-0.1407,-0.1355,-0.137,-0.1391,-0.1257,-0.1206,-0.1139,-0.1141,-0.1143,-0.1144,-0.1146,0,-0.1401,-0.1405,-0.1421,-0.143,-0.1466,-0.1534,-0.1608,-0.156,-0.1469,-0.1478,-0.1388,-0.1204,-0.1073,-0.1093,-0.0967,-0.0947,-0.0972,-0.0916,-0.0949,-0.0986,-0.102,-0.087,-0.0649,-0.0648,-0.0647,-0.0646,0,0,-0.1353,-0.1326,-0.1317,-0.1305,-0.1349,-0.1338,-0.1336,-0.1232,-0.1185,-0.1021,-0.0931,-0.0971,-0.1017,-0.0815,-0.0781,-0.0691,-0.0835,-0.0657,-0.1049,-0.1122,-0.1154,-0.1259,-0.1066,0,0,0,0,0]},{"header":{"parameterUnit":"m.s-1","parameterCategory":2,"la1":30.2991,"la2":30.254,"lo1":-89.0895,"lo2":-89.0444,"dy":0.0017,"dx":0.0017,"nx":28,"ny":28,"refTime":"2024-12-07T03:00:00:Z","depth":"2","parameterNumber":3,"parameterNumberName":"V-component_of_CURRENTS"},"data":[0,0,0,0,0,0,0,0,0,0,0,0,0,0,0,0,0,0,0,0,0,0,0,0,0,0,0,0,0,0,0,0,0,0,0,0,0,0,0,0,0,0,0,0,0,0,0,0,0,0,0,0,0,0,0,0,0,0,-0.0188,-0.0188,0,-0.0144,-0.0144,-0.0143,-0.0135,-0.0135,-0.0136,-0.0137,-0.0122,-0.0121,-0.012,0,0,0,0,0,0,0,0,0,0,0,0,0,-0.0196,-0.0196,-0.0188,-0.0188,-0.0188,-0.0145,-0.0144,-0.0143,-0.0135,-0.0135,-0.0136,-0.0137,-0.0122,-0.0121,-0.012,0,0,0,0,0,0,0,0,0,0,0,0,0,-0.0174,-0.0196,-0.0188,-0.0181,-0.018,-0.0145,-0.0144,-0.0143,-0.0134,-0.0135,-0.0136,-0.0137,-0.0123,-0.0121,-0.012,-0.0093,0,0,-0.0116,-0.0115,0,0,0,0,0,0,0,0,-0.0175,-0.0173,-0.0182,-0.0181,-0.018,-0.0148,-0.0141,-0.0128,-0.0134,-0.0149,-0.0137,-0.0138,-0.0135,-0.0132,-0.0118,-0.0092,-0.0091,-0.0116,-0.0115,-0.0114,-0.0114,0,0,0,0,0,0,0,-0.0177,-0.0175,-0.0168,-0.0182,-0.018,-0.0156,-0.0154,-0.0138,-0.0135,-0.0147,-0.0147,-0.0147,-0.0134,-0.0119,-0.0117,-0.0091,-0.0116,-0.0114,-0.0113,-0.0113,-0.0067,-0.0067,0,0,0,0,0,0,-0.0191,-0.0177,-0.017,-0.0167,-0.0183,-0.0155,-0.0153,-0.0155,-0.0135,-0.0133,-0.0146,-0.0147,-0.0121,-0.0119,-0.0117,-0.0113,-0.0114,-0.0113,-0.0112,-0.0068,-0.0067,-0.0067,0,0,0,0,0,0,-0.0191,-0.019,-0.0171,-0.0173,-0.0169,-0.0155,-0.0157,-0.0154,-0.0165,-0.0134,-0.0133,-0.0164,-0.0122,-0.0119,-0.0117,-0.0111,-0.0112,-0.0111,-0.0068,-0.0067,-0.0067,-0.0086,0,0,0,0,0,0,-0.0191,-0.0191,-0.0203,-0.0174,-0.017,-0.0171,-0.0156,-0.0153,-0.0163,-0.0164,-0.0148,-0.0146,-0.0122,-0.012,-0.0116,-0.0109,-0.011,-0.0068,-0.0068,-0.0067,-0.0086,-0.0086,-0.0087,0,0,0,0,0,-0.0192,-0.0217,-0.0204,-0.0204,-0.0185,-0.0172,-0.0168,-0.0158,-0.0163,-0.0171,-0.0156,-0.0148,-0.0112,-0.0118,-0.0114,-0.0107,-0.0069,-0.0068,-0.0067,-0.0086,-0.0086,-0.0087,0,0,0,0,0,0,-0.0243,-0.0217,-0.0203,-0.0223,-0.0205,-0.0173,-0.0188,-0.0175,-0.0167,-0.0177,-0.0148,-0.0144,-0.0136,-0.0122,-0.0129,-0.0091,-0.0087,-0.0086,-0.0103,-0.0103,-0.0103,-0.0116,-0.0108,0,0,0,0,0,-0.0254,-0.026,-0.0229,-0.0248,-0.0244,-0.0218,-0.0215,-0.0205,-0.0191,-0.019,-0.017,-0.015,-0.0123,-0.0118,-0.0095,-0.0081,-0.0063,-0.0072,-0.0072,-0.0073,-0.0079,-0.0047,-0.0045,-0.0064,-0.0064,-0.0064,0,0,-0.0283,-0.0268,-0.0275,-0.0257,-0.0247,-0.0238,-0.022,-0.0228,-0.0214,-0.0189,-0.0179,-0.0156,-0.0121,-0.0097,-0.0092,-0.009,-0.0055,-0.0072,-0.0073,-0.0079,-0.0046,-0.0044,-0.0042,-0.0064,-0.0064,-0.0064,0,0,-0.033,-0.0329,-0.0339,-0.0321,-0.0305,-0.0281,-0.0291,-0.0262,-0.0249,-0.0228,-0.0201,-0.0178,-0.0144,-0.0108,-0.0087,-0.0079,-0.0059,-0.0074,-0.0085,-0.0053,-0.0052,-0.005,-0.0018,-0.0013,-0.0073,-0.0073,-0.0073,0,-0.0366,-0.0363,-0.0344,-0.0339,-0.0329,-0.0306,-0.0306,-0.0283,-0.0253,-0.0237,-0.0234,-0.0166,-0.0142,-0.0099,-0.0092,-0.0079,-0.0063,-0.0087,-0.0055,-0.0053,-0.005,-0.0018,-0.0012,-0.0074,-0.0074,-0.0074,-0.0073,0,-0.0398,-0.0398,-0.041,-0.0384,-0.0373,-0.0378,-0.0336,-0.0325,-0.0304,-0.0268,-0.0231,-0.0185,-0.0146,-0.0126,-0.0106,-0.0075,-0.0068,-0.006,-0.0056,-0.005,-0.0015,-0.0009,-0.0075,-0.0075,-0.0074,-0.0074,0,0,-0.0456,-0.0437,-0.0434,-0.0428,-0.0395,-0.0391,-0.0369,-0.0333,-0.0321,-0.0278,-0.025,-0.019,-0.017,-0.0145,-0.0112,-0.0081,-0.0046,-0.0072,-0.0069,-0.0045,0.0021,0.0052,0.0061,-0.0038,-0.0037,-0.0036,0.0042,0,-0.048,-0.0487,-0.0457,-0.046,-0.0463,-0.0423,-0.0399,-0.0364,-0.0327,-0.0295,-0.0238,-0.0204,-0.0174,-0.0159,-0.0122,-0.0069,-0.0033,-0.0068,0.0016,0.0018,0.004,0.0068,0.0055,0.0125,0.0048,0.0049,0.005,0,-0.0498,-0.0499,-0.051,-0.0489,-0.0486,-0.0479,-0.0443,-0.0418,-0.036,-0.0331,-0.0287,-0.0245,-0.0189,-0.0169,-0.0071,-0.0099,-0.0044,0.0001,0.0005,0.0041,0.0059,0.0106,0.0139,0.006,0.0059,0.0058,0.0058,0,-0.0534,-0.0527,-0.054,-0.0533,-0.0508,-0.0503,-0.0487,-0.0435,-0.042,-0.0362,-0.035,-0.027,-0.0239,-0.016,-0.0059,-0.0071,0.0049,0.0048,0.0132,0.0135,0.0145,0.0147,0.0118,0.0118,0.0118,0.0118,0.0117,0,-0.0558,-0.0564,-0.0564,-0.057,-0.0586,-0.0547,-0.0549,-0.0516,-0.0475,-0.0468,-0.0384,-0.0355,-0.0239,-0.0153,-0.0065,0.0059,0.005,0.0137,0.016,0.0139,0.014,0.0095,0.0092,0.012,0.012,0.0119,0.0119,0,-0.0589,-0.0586,-0.0605,-0.0601,-0.0607,-0.0619,-0.0614,-0.0615,-0.0561,-0.0552,-0.054,-0.0425,-0.0303,-0.0169,-0.0027,0.005,0.0168,0.0216,0.0187,0.0206,0.0231,0.0226,0.0308,0.031,0.0311,0.0312,0.0313,0,-0.0603,-0.0619,-0.0648,-0.0683,-0.0689,-0.0706,-0.0723,-0.0673,-0.0676,-0.0594,-0.0598,-0.0466,-0.0358,-0.0116,0.0046,0.0226,0.022,0.0308,0.0287,0.0238,0.0252,0.0244,0.0237,0.0296,0.0297,0.0297,0.0298,0,-0.0634,-0.0648,-0.0674,-0.0755,-0.0793,-0.0822,-0.084,-0.0849,-0.0789,-0.0738,-0.0644,-0.0537,-0.0303,-0.0085,0.015,0.0245,0.0278,0.0327,0.0294,0.0247,0.0232,0.0244,0.0237,0.0304,0.0303,0.0303,0.0302,0.0302,-0.0663,-0.0695,-0.075,-0.0824,-0.0882,-0.093,-0.0937,-0.0922,-0.0882,-0.0772,-0.0681,-0.0475,-0.0286,0.0075,0.0222,0.0354,0.0345,0.0379,0.0375,0.037,0.0352,0.0341,0.0429,0.0429,0.0429,0.0429,0.0429,0,-0.0702,-0.0747,-0.0822,-0.0904,-0.0988,-0.0998,-0.101,-0.0974,-0.0903,-0.076,-0.0613,-0.0363,-0.011,0.0085,0.0301,0.0421,0.0399,0.0438,0.0385,0.0379,0.0374,0.0353,0.0432,0.0432,0.0433,0.0433,0,0,-0.0724,-0.0793,-0.0828,-0.0973,-0.1051,-0.1112,-0.1108,-0.0993,-0.0867,-0.068,-0.0502,-0.0297,-0.007,0.0084,0.0232,0.0341,0.0325,0.0348,0.0335,0.0248,0.0241,0.0332,0.0294,0,0,0,0,0]}],[{"header":{"parameterUnit":"m.s-1","parameterCategory":2,"la1":30.2991,"la2":30.254,"lo1":-89.0895,"lo2":-89.0444,"dy":0.0017,"dx":0.0017,"nx":28,"ny":28,"refTime":"2024-12-07T03:00:00:Z","depth":"4","parameterNumber":2,"parameterNumberName":"U-component_of_CURRENTS"},"data":[0,0,0,0,0,0,0,0,0,0,0,0,0,0,0,0,0,0,0,0,0,0,0,0,0,0,0,0,0,0,0,0,0,0,0,0,0,0,0,0,0,0,0,0,0,0,0,0,0,0,0,0,0,0,0,0,0,0,-0.0577,-0.0577,0,-0.0605,-0.0605,-0.0605,-0.062,-0.062,-0.062,-0.062,-0.063,-0.063,-0.063,0,0,0,0,0,0,0,0,0,0,0,0,0,-0.0524,-0.0525,-0.0577,-0.0577,-0.0578,-0.0605,-0.0605,-0.0605,-0.0619,-0.062,-0.062,-0.062,-0.063,-0.063,-0.063,0,0,0,0,0,0,0,0,0,0,0,0,0,-0.0547,-0.0525,-0.0577,-0.059,-0.0591,-0.0605,-0.0605,-0.0605,-0.0619,-0.062,-0.062,-0.062,-0.063,-0.063,-0.063,-0.0626,0,0,-0.0631,-0.0631,0,0,0,0,0,0,0,0,-0.0546,-0.0549,-0.0587,-0.0589,-0.0591,-0.0611,-0.059,-0.0612,-0.0619,-0.0607,-0.062,-0.062,-0.0623,-0.0624,-0.0626,-0.0626,-0.0627,-0.0631,-0.0631,-0.0631,-0.0631,0,0,0,0,0,0,0,-0.0544,-0.0548,-0.0586,-0.0588,-0.059,-0.059,-0.0594,-0.0594,-0.0611,-0.0608,-0.0609,-0.0615,-0.0623,-0.0626,-0.0626,-0.0627,-0.0631,-0.0631,-0.0631,-0.0631,-0.0664,-0.0665,0,0,0,0,0,0,-0.0545,-0.0546,-0.0585,-0.0587,-0.0571,-0.0591,-0.0595,-0.0602,-0.0612,-0.0614,-0.0615,-0.0616,-0.0625,-0.0626,-0.0627,-0.0655,-0.0631,-0.0631,-0.0631,-0.0663,-0.0664,-0.0665,0,0,0,0,0,0,-0.0544,-0.0548,-0.0584,-0.0569,-0.0574,-0.0592,-0.06,-0.0603,-0.0614,-0.0618,-0.0619,-0.0624,-0.0626,-0.0626,-0.0639,-0.0654,-0.0631,-0.0631,-0.0662,-0.0663,-0.0665,-0.069,0,0,0,0,0,0,-0.0542,-0.0548,-0.0554,-0.0569,-0.0575,-0.0599,-0.06,-0.0603,-0.0617,-0.0619,-0.0626,-0.0627,-0.0626,-0.0639,-0.0639,-0.0654,-0.0631,-0.0661,-0.0663,-0.0664,-0.0689,-0.0692,-0.0696,0,0,0,0,0,-0.054,-0.0547,-0.0554,-0.0559,-0.0582,-0.0599,-0.0602,-0.0614,-0.0618,-0.0624,-0.0632,-0.0627,-0.0649,-0.064,-0.064,-0.0655,-0.0661,-0.0662,-0.0664,-0.0687,-0.0692,-0.0695,0,0,0,0,0,0,-0.0525,-0.0549,-0.0557,-0.0571,-0.0587,-0.0602,-0.0609,-0.0618,-0.063,-0.0632,-0.0634,-0.0635,-0.0654,-0.065,-0.064,-0.067,-0.0655,-0.0657,-0.0672,-0.0677,-0.068,-0.0685,-0.0631,0,0,0,0,0,-0.0526,-0.0538,-0.056,-0.0571,-0.0579,-0.0595,-0.0604,-0.0614,-0.0627,-0.0632,-0.064,-0.0648,-0.0659,-0.0665,-0.0672,-0.0684,-0.069,-0.0695,-0.0699,-0.0702,-0.0707,-0.0712,-0.0717,-0.0671,-0.0671,-0.0671,0,0,-0.0523,-0.0538,-0.0545,-0.0569,-0.058,-0.0596,-0.06,-0.0617,-0.0635,-0.063,-0.0654,-0.066,-0.0666,-0.0684,-0.0692,-0.0684,-0.0724,-0.0704,-0.0706,-0.071,-0.0715,-0.0719,-0.0723,-0.0672,-0.0672,-0.0672,0,0,-0.0521,-0.0537,-0.0545,-0.0561,-0.0584,-0.0598,-0.0605,-0.0627,-0.0642,-0.0664,-0.0669,-0.0685,-0.0699,-0.071,-0.0716,-0.0742,-0.0742,-0.0745,-0.0767,-0.0772,-0.0775,-0.0779,-0.0817,-0.0823,-0.0747,-0.0747,-0.0747,0,-0.0515,-0.0531,-0.055,-0.0562,-0.0577,-0.0601,-0.0614,-0.0634,-0.066,-0.0676,-0.0675,-0.0709,-0.0712,-0.074,-0.0753,-0.075,-0.0762,-0.0749,-0.0776,-0.0779,-0.0782,-0.082,-0.0827,-0.0748,-0.0748,-0.0748,-0.0748,0,-0.0519,-0.0534,-0.054,-0.0567,-0.0586,-0.0601,-0.0634,-0.0658,-0.0679,-0.0699,-0.0733,-0.0742,-0.0762,-0.0769,-0.0769,-0.0796,-0.0804,-0.0779,-0.0763,-0.0788,-0.0827,-0.0834,-0.075,-0.075,-0.0749,-0.0749,0,0,-0.0494,-0.0534,-0.0536,-0.0551,-0.059,-0.0605,-0.0644,-0.0683,-0.0714,-0.0738,-0.0772,-0.0795,-0.0802,-0.081,-0.0814,-0.0824,-0.0863,-0.0813,-0.0813,-0.085,-0.0902,-0.0857,-0.086,-0.0837,-0.0838,-0.0838,-0.0931,0,-0.0488,-0.0509,-0.0536,-0.0563,-0.0577,-0.0619,-0.0659,-0.07,-0.0735,-0.0775,-0.0795,-0.0825,-0.0818,-0.0832,-0.084,-0.0854,-0.0877,-0.0842,-0.0875,-0.0877,-0.083,-0.0864,-0.084,-0.0936,-0.0937,-0.0938,-0.0939,0,-0.0476,-0.0495,-0.0517,-0.057,-0.0582,-0.0605,-0.0671,-0.0711,-0.0775,-0.0807,-0.0838,-0.0854,-0.0888,-0.0867,-0.091,-0.0887,-0.0902,-0.0911,-0.0914,-0.0864,-0.0842,-0.09,-0.095,-0.095,-0.0949,-0.0948,-0.0947,0,-0.0441,-0.048,-0.0499,-0.0514,-0.0579,-0.0602,-0.0641,-0.0712,-0.0758,-0.0823,-0.0862,-0.0893,-0.0923,-0.093,-0.0957,-0.0934,-0.1004,-0.0968,-0.0951,-0.095,-0.0951,-0.0946,-0.0999,-0.0999,-0.0999,-0.0999,-0.0998,0,-0.0419,-0.0432,-0.0482,-0.0492,-0.052,-0.0581,-0.0628,-0.0679,-0.0765,-0.0831,-0.0869,-0.0924,-0.0938,-0.0978,-0.0981,-0.0997,-0.1025,-0.0969,-0.0965,-0.0965,-0.096,-0.0958,-0.0952,-0.1002,-0.1001,-0.1001,-0.1,0,-0.0371,-0.0407,-0.0428,-0.0487,-0.0499,-0.052,-0.0603,-0.0646,-0.0746,-0.0833,-0.0858,-0.0954,-0.1012,-0.1033,-0.1068,-0.1035,-0.1046,-0.1047,-0.1086,-0.1081,-0.0988,-0.0983,-0.103,-0.1029,-0.1028,-0.1028,-0.1027,0,-0.0351,-0.0354,-0.0399,-0.0402,-0.042,-0.0463,-0.0496,-0.0608,-0.0674,-0.0858,-0.0899,-0.0994,-0.1047,-0.1081,-0.1086,-0.1095,-0.1075,-0.108,-0.0993,-0.0997,-0.0989,-0.0985,-0.098,-0.1026,-0.1025,-0.1025,-0.1025,0,-0.03,-0.0316,-0.0334,-0.0334,-0.0353,-0.0398,-0.0466,-0.053,-0.0699,-0.0777,-0.0937,-0.0988,-0.106,-0.1075,-0.1091,-0.1088,-0.1065,-0.1071,-0.1072,-0.099,-0.0992,-0.0984,-0.0981,-0.1022,-0.1023,-0.1023,-0.1023,0,-0.0257,-0.0251,-0.0265,-0.0264,-0.0284,-0.0343,-0.0401,-0.0517,-0.0614,-0.0844,-0.0891,-0.1007,-0.1082,-0.1076,-0.1092,-0.1079,-0.1047,-0.0999,-0.1002,-0.1005,-0.0944,-0.094,-0.0962,0,0,0,0,0,-0.0208,-0.0191,-0.0187,-0.0194,-0.0214,-0.0236,-0.0382,-0.047,-0.0645,-0.0742,-0.0834,-0.0911,-0.0975,-0.1016,-0.0991,-0.1032,-0.1016,-0.0996,-0.0955,-0.1007,-0.101,-0.0933,0,0,0,0,0,0,-0.0177,-0.0163,-0.0166,-0.0132,-0.0121,-0.0162,-0.0273,-0.0405,-0.0494,-0.0667,-0.0705,-0.0806,-0.0861,-0.0941,-0.0941,-0.095,-0.0903,-0.1049,-0.1047,-0.1005,-0.1008,-0.101,-0.0933,0,0,0,0,0]},{"header":{"parameterUnit":"m.s-1","parameterCategory":2,"la1":30.2991,"la2":30.254,"lo1":-89.0895,"lo2":-89.0444,"dy":0.0017,"dx":0.0017,"nx":28,"ny":28,"refTime":"2024-12-07T03:00:00:Z","depth":"4","parameterNumber":3,"parameterNumberName":"V-component_of_CURRENTS"},"data":[0,0,0,0,0,0,0,0,0,0,0,0,0,0,0,0,0,0,0,0,0,0,0,0,0,0,0,0,0,0,0,0,0,0,0,0,0,0,0,0,0,0,0,0,0,0,0,0,0,0,0,0,0,0,0,0,0,0,-0.0024,-0.0024,0,-0.0028,-0.0028,-0.0028,-0.0015,-0.0014,-0.0014,-0.0014,-0.0016,-0.0016,-0.0017,0,0,0,0,0,0,0,0,0,0,0,0,0,-0.0002,-0.0002,-0.0024,-0.0024,-0.0024,-0.0028,-0.0028,-0.0028,-0.0015,-0.0014,-0.0014,-0.0014,-0.0016,-0.0016,-0.0017,0,0,0,0,0,0,0,0,0,0,0,0,0,-0.0009,-0.0003,-0.0024,-0.0018,-0.0018,-0.0028,-0.0028,-0.0028,-0.0015,-0.0014,-0.0014,-0.0013,-0.0016,-0.0016,-0.0017,-0.0032,0,0,-0.0019,-0.0019,0,0,0,0,0,0,0,0,-0.0009,-0.001,-0.0019,-0.0019,-0.0018,-0.0021,-0.0021,-0.0029,-0.0015,-0.0016,-0.0014,-0.0013,-0.0018,-0.0018,-0.002,-0.0032,-0.0032,-0.0019,-0.0019,-0.0019,-0.002,0,0,0,0,0,0,0,-0.0008,-0.001,-0.0025,-0.0019,-0.0019,-0.0015,-0.0015,-0.0023,-0.002,-0.0016,-0.0015,-0.0016,-0.0018,-0.0019,-0.002,-0.0032,-0.0019,-0.0019,-0.002,-0.002,-0.0042,-0.0042,0,0,0,0,0,0,-0.0009,-0.0009,-0.0025,-0.0026,-0.0012,-0.0015,-0.0016,-0.002,-0.002,-0.0019,-0.0016,-0.0015,-0.0019,-0.0019,-0.002,-0.0031,-0.0019,-0.002,-0.002,-0.0041,-0.0042,-0.0042,0,0,0,0,0,0,-0.0009,-0.0011,-0.0025,-0.0017,-0.0019,-0.0016,-0.0021,-0.0021,-0.002,-0.002,-0.0019,-0.0016,-0.0018,-0.0019,-0.0027,-0.0031,-0.002,-0.0021,-0.0041,-0.0041,-0.0042,-0.0057,0,0,0,0,0,0,-0.0008,-0.0011,-0.0014,-0.0018,-0.0019,-0.0036,-0.0022,-0.0021,-0.0022,-0.002,-0.002,-0.002,-0.0018,-0.0026,-0.0028,-0.0032,-0.0021,-0.0041,-0.0041,-0.0042,-0.0057,-0.0058,-0.006,0,0,0,0,0,-0.0008,-0.002,-0.0014,-0.0016,-0.0024,-0.0037,-0.0038,-0.0033,-0.0022,-0.0029,-0.0025,-0.002,-0.0029,-0.0027,-0.0029,-0.0033,-0.0041,-0.0041,-0.0042,-0.0056,-0.0058,-0.006,0,0,0,0,0,0,-0.0015,-0.002,-0.0014,-0.0027,-0.0032,-0.0035,-0.0041,-0.0035,-0.0036,-0.0033,-0.0027,-0.0027,-0.0035,-0.0033,-0.003,-0.004,-0.0032,-0.0033,-0.0043,-0.0045,-0.0046,-0.0039,-0.0022,0,0,0,0,0,-0.0018,-0.0026,-0.0029,-0.0039,-0.0043,-0.004,-0.0043,-0.004,-0.0042,-0.0042,-0.0041,-0.0039,-0.004,-0.0041,-0.0045,-0.0053,-0.0027,-0.0055,-0.0057,-0.0058,-0.0053,-0.0018,-0.0016,-0.0043,-0.0043,-0.0043,0,0,-0.0024,-0.0027,-0.0032,-0.0041,-0.0043,-0.0057,-0.0041,-0.0049,-0.0057,-0.0043,-0.0054,-0.0048,-0.0044,-0.0052,-0.0055,-0.0049,-0.0036,-0.0059,-0.006,-0.0054,-0.0018,-0.0016,-0.0013,-0.0044,-0.0044,-0.0044,0,0,-0.0045,-0.0043,-0.0057,-0.0064,-0.0069,-0.007,-0.0072,-0.0076,-0.0072,-0.0083,-0.007,-0.0062,-0.0074,-0.0064,-0.0061,-0.0073,-0.0047,-0.0077,-0.0078,-0.0045,-0.0042,-0.0039,0.0003,0.0009,-0.0076,-0.0076,-0.0076,0,-0.005,-0.0068,-0.0064,-0.0081,-0.009,-0.0077,-0.0097,-0.0095,-0.0099,-0.0092,-0.009,-0.008,-0.0077,-0.007,-0.0072,-0.0075,-0.0049,-0.0073,-0.0045,-0.0042,-0.0039,0.0003,0.0011,-0.0077,-0.0077,-0.0076,-0.0076,0,-0.0082,-0.0096,-0.0107,-0.0122,-0.0132,-0.0147,-0.0146,-0.0146,-0.0137,-0.0127,-0.0117,-0.0106,-0.0093,-0.0093,-0.0088,-0.0066,-0.0052,-0.0052,-0.0039,-0.0037,0.0007,0.0015,-0.0078,-0.0077,-0.0077,-0.0077,0,0,-0.0092,-0.0124,-0.0126,-0.0142,-0.0155,-0.0168,-0.0176,-0.0175,-0.0167,-0.0159,-0.0147,-0.0137,-0.0111,-0.0106,-0.0091,-0.0061,-0.0015,-0.0048,-0.0046,-0.0003,0.0069,0.0043,0.0049,-0.0011,-0.001,-0.0009,0.0093,0,-0.0115,-0.0155,-0.0165,-0.0202,-0.0221,-0.0217,-0.0226,-0.022,-0.0201,-0.0186,-0.0151,-0.0138,-0.0122,-0.0111,-0.0078,-0.0034,0.0005,-0.0042,0.0058,0.0061,0.004,0.0057,-0.0005,0.0099,0.0101,0.0103,0.0104,0,-0.0138,-0.0163,-0.0203,-0.0236,-0.0244,-0.0264,-0.0263,-0.0269,-0.0235,-0.0218,-0.0183,-0.0153,-0.0107,-0.0098,-0.0003,-0.0034,0.0019,0.0057,0.0062,0.0049,0.0049,0.0095,0.0119,0.0118,0.0117,0.0115,0.0115,0,-0.0139,-0.0187,-0.022,-0.0234,-0.0268,-0.0281,-0.0293,-0.0274,-0.0273,-0.0229,-0.0212,-0.0152,-0.0122,-0.005,0.0024,0.0019,0.0128,0.0131,0.0162,0.0162,0.0163,0.0159,0.0205,0.0205,0.0205,0.0205,0.0204,0,-0.0155,-0.0179,-0.0225,-0.0243,-0.028,-0.0296,-0.0315,-0.0306,-0.0291,-0.0284,-0.0226,-0.0201,-0.0108,-0.004,0.0031,0.0119,0.0139,0.0172,0.0186,0.0154,0.0148,0.017,0.0164,0.0208,0.0208,0.0207,0.0206,0,-0.0144,-0.0174,-0.0215,-0.0263,-0.0282,-0.0305,-0.0347,-0.0355,-0.0329,-0.0315,-0.0303,-0.0226,-0.0134,-0.0043,0.0077,0.0123,0.021,0.0236,0.0201,0.0211,0.0227,0.022,0.0299,0.0299,0.0299,0.0299,0.0299,0,-0.0139,-0.0159,-0.0227,-0.0259,-0.0285,-0.0328,-0.0359,-0.037,-0.0374,-0.0331,-0.0323,-0.0235,-0.0177,-0.002,0.0073,0.0213,0.0221,0.0273,0.0249,0.0231,0.0237,0.023,0.0223,0.0298,0.0298,0.0298,0.0298,0,-0.0127,-0.0152,-0.019,-0.0252,-0.0302,-0.0365,-0.0405,-0.0416,-0.0416,-0.0392,-0.0332,-0.0248,-0.0146,-0.0026,0.0075,0.0172,0.0242,0.0273,0.0274,0.0252,0.0231,0.0236,0.0229,0.0298,0.0298,0.0298,0.0298,0,-0.0112,-0.0136,-0.0186,-0.0243,-0.0316,-0.0386,-0.0414,-0.0429,-0.0436,-0.0389,-0.0369,-0.0255,-0.0185,-0.0046,0.0047,0.0136,0.0163,0.0189,0.0195,0.0197,0.0123,0.0079,0.012,0,0,0,0,0,-0.0092,-0.012,-0.0175,-0.0244,-0.0321,-0.0365,-0.0437,-0.0457,-0.0458,-0.0422,-0.0397,-0.0303,-0.0154,-0.0082,0.0005,0.0044,0.0173,0.0147,0.0205,0.0297,0.0297,0.0223,0,0,0,0,0,0,-0.0081,-0.0121,-0.016,-0.0239,-0.0287,-0.0371,-0.043,-0.0438,-0.0418,-0.0397,-0.0319,-0.0268,-0.0124,-0.0186,0.002,0.0047,0.0094,0.0223,0.0225,0.0296,0.0297,0.0297,0.0221,0,0,0,0,0]}]]